Weather History for KTVL - April, 2013

Change the Weather History Date:

Saturday, April 27, 2013

  Actual Average Record
Temperature  
Mean Temperature 53 °F 43 °F  
Max Temperature 72 °F 58 °F 72 °F (2013)
Min Temperature 33 °F 29 °F 8 °F (1955)
Degree Days  
Heating Degree Days 12 22  
Month to date heating degree days 567 674  
Since 1 July heating degree days 6349 6826  
Cooling Degree Days 0 0  
Month to date cooling degree days 0 0  
Year to date cooling degree days 0 0  
Growing Degree Days 2 (Base 50)    
Moisture  
Dew Point 32 °F    
Average Humidity 51    
Maximum Humidity 82    
Minimum Humidity 19    
Precipitation  
Precipitation 0.00 in - 1.26 in (1943)
Month to date precipitation 0.70  
Year to date precipitation 2.94  
Sea Level Pressure  
Sea Level Pressure 30.25 in    
Wind  
Wind Speed 3 mph (South)    
Max Wind Speed 13 mph    
Max Gust Speed 20 mph    
Visibility 10 miles    
Events      
T = Trace of Precipitation, MM = Missing Value Source: NWS Daily Summary

Daily Weather History Graph

Daily Weather History Graph

Search for Another Location

Airport or City:

Trip Planner

Search our weather history database for the weather conditions in past years. The results will help you decide how hot, cold, wet, or windy it might be!

Date:

Astronomy

Apr. 27, 2013 Rise Set
Actual Time 6:06 AM PDT 7:49 PM PDT
Civil Twilight 5:38 AM PDT 8:17 PM PDT
Nautical Twilight 5:03 AM PDT 8:52 PM PDT
Astronomical Twilight 4:27 AM PDT 9:28 PM PDT
Moon 10:22 PM PDT (4/27) 7:30 AM PDT (4/27)
Length of Visible Light 14h 39m
Length of Day
13h 42m
Waning Gibbous, 95% of the Moon is Illuminated
Apr 27
Waning Gibbous
May 2
Last Quarter
May 9
New
May 17
First Quarter
May 24
Full

Hourly Weather History & Observations

Time (PDT) Temp. Windchill Dew Point Humidity Pressure Visibility Wind Dir Wind Speed Gust Speed Precip Events Conditions
12:53 AM 43.0 °F - 32.0 °F 65% 30.28 in 10.0 mi Calm Calm - N/A   Clear
1:53 AM 39.0 °F 36.8 °F 32.0 °F 76% 30.28 in 10.0 mi South 3.5 mph - N/A   Clear
2:53 AM 39.0 °F - 30.9 °F 73% 30.27 in 10.0 mi Calm Calm - N/A   Clear
3:53 AM 36.0 °F 33.3 °F 30.0 °F 79% 30.27 in 10.0 mi South 3.5 mph - N/A   Clear
4:53 AM 35.1 °F - 30.0 °F 82% 30.29 in 10.0 mi Calm Calm - N/A   Clear
5:53 AM 34.0 °F 31.0 °F 28.0 °F 79% 30.30 in 10.0 mi South 3.5 mph - N/A   Clear
6:53 AM 33.1 °F - 28.9 °F 85% 30.32 in 10.0 mi Calm Calm - N/A   Clear
7:53 AM 41.0 °F - 34.0 °F 76% 30.33 in 10.0 mi Calm Calm - N/A   Clear
8:53 AM 53.1 °F - 36.0 °F 52% 30.31 in 10.0 mi Calm Calm - N/A   Clear
9:53 AM 61.0 °F - 37.0 °F 41% 30.28 in 10.0 mi NE 5.8 mph - N/A   Clear
10:53 AM 63.0 °F - 36.0 °F 37% 30.29 in 10.0 mi NE 6.9 mph - N/A   Clear
11:53 AM 66.0 °F - 36.0 °F 33% 30.27 in 10.0 mi NE 6.9 mph - N/A   Clear
12:53 PM 68.0 °F - 35.1 °F 30% 30.25 in 10.0 mi NNE 8.1 mph - N/A   Clear
1:53 PM 71.1 °F - 28.9 °F 21% 30.23 in 10.0 mi Calm Calm - N/A   Clear
2:53 PM 72.0 °F - 26.1 °F 18% 30.22 in 10.0 mi SSW 11.5 mph 19.6 mph N/A   Clear
3:53 PM 70.0 °F - 28.9 °F 22% 30.22 in 10.0 mi SSW 11.5 mph 19.6 mph N/A   Clear
4:53 PM 70.0 °F - 30.0 °F 23% 30.21 in 10.0 mi Variable 5.8 mph 19.6 mph N/A   Clear
5:53 PM 66.9 °F - 30.9 °F 26% 30.21 in 10.0 mi SSW 6.9 mph - N/A   Clear
6:53 PM 63.0 °F - 34.0 °F 34% 30.22 in 10.0 mi Variable 3.5 mph - N/A   Clear
7:53 PM 55.0 °F - 36.0 °F 49% 30.22 in 10.0 mi Calm Calm - N/A   Clear
8:53 PM 51.1 °F - 35.1 °F 54% 30.21 in 10.0 mi Calm Calm - N/A   Clear
9:53 PM 48.0 °F - 34.0 °F 58% 30.20 in 10.0 mi Calm Calm - N/A   Clear
10:53 PM 45.0 °F 43.5 °F 33.1 °F 63% 30.19 in 10.0 mi SW 3.5 mph - N/A   Clear
11:53 PM 41.0 °F - 32.0 °F 70% 30.19 in 10.0 mi Calm Calm - N/A   Clear